Weather History for Peoria, IL

Change the Weather History Date:

Sunday, December 23, 2012

  Actual Average Record
Temperature  
Mean Temperature 27 °F 26 °F  
Max Temperature 35 °F 34 °F 65 °F (1933)
Min Temperature 18 °F 19 °F -22 °F (1989)
Degree Days  
Heating Degree Days 38 39  
Month to date heating degree days 601 816  
Since 1 July heating degree days 1835 1964  
Cooling Degree Days 0 0  
Month to date cooling degree days 0 0  
Year to date cooling degree days 1374 1039  
Moisture  
Dew Point 22 °F    
Average Humidity 78    
Maximum Humidity 100    
Minimum Humidity 56    
Precipitation  
Precipitation 0.00 in 0.07 in 1.28 in (1932)
Month to date precipitation 1.87 1.88  
Year to date precipitation 26.97 35.95  
Snow  
Snow 0.00 in 0.20 in 4.60 in (1935)
Month to date snowfall 2.2 5.1  
Since 1 July snowfall 2.2 6.2  
Snow Depth 1.00 in    
Sea Level Pressure  
Sea Level Pressure 29.98 in    
Wind  
Wind Speed 4 mph (NE)    
Max Wind Speed 12 mph    
Max Gust Speed 15 mph    
Visibility 7 miles    
Events      
T = Trace of Precipitation, MM = Missing Value Source: NWS Daily Summary

Daily Weather History Graph

Daily Weather History Graph

Search for Another Location

Airport:

Trip Planner

Search our weather history database for the weather conditions in past years. The results will help you decide how hot, cold, wet, or windy it might be!

Date:

Astronomy

Dec. 23, 2012 Rise Set
Actual Time 7:20 AM CST 4:36 PM CST
Civil Twilight 6:49 AM CST 5:06 PM CST
Nautical Twilight 6:14 AM CST 5:41 PM CST
Astronomical Twilight 5:41 AM CST 6:14 PM CST
Moon 1:27 PM CST (12/23) 3:02 AM CST (12/23)
Length of Visible Light 10h 17m
Length of Day
9h 15m
Waxing Gibbous, 82% of the Moon is Illuminated
Dec 23
Waxing Gibbous
Dec 28
Full
Jan 4
Last Quarter
Jan 11
New
Jan 18
First Quarter

Hourly Weather History & Observations

Time (CST) Temp. Windchill Dew Point Humidity Pressure Visibility Wind Dir Wind Speed Gust Speed Precip Events Conditions
12:54 AM 21.9 °F - 19.9 °F 92% 29.95 in 8.0 mi Calm Calm - N/A   Clear
1:54 AM 21.0 °F - 18.0 °F 88% 29.95 in 7.0 mi Calm Calm - N/A   Clear
2:54 AM 19.9 °F 14.9 °F 19.0 °F 96% 29.95 in 8.0 mi North 3.5 mph - N/A   Clear
3:54 AM 21.0 °F - 18.0 °F 88% 29.95 in 9.0 mi Calm Calm - N/A   Clear
4:54 AM 21.9 °F - 19.0 °F 89% 29.97 in 7.0 mi Calm Calm - N/A   Clear
5:54 AM 21.9 °F - 19.0 °F 89% 29.97 in 6.0 mi Calm Calm - N/A   Clear
6:54 AM 21.0 °F - 19.0 °F 92% 29.97 in 7.0 mi Calm Calm - N/A   Clear
7:54 AM 19.0 °F - 17.1 °F 92% 30.00 in 5.0 mi Calm Calm - N/A   Clear
8:54 AM 24.1 °F 18.2 °F 19.9 °F 84% 30.03 in 7.0 mi North 4.6 mph - N/A   Clear
9:54 AM 27.0 °F 18.7 °F 19.0 °F 72% 30.04 in 9.0 mi NE 8.1 mph - N/A   Clear
10:54 AM 30.0 °F 24.1 °F 19.9 °F 66% 30.03 in 9.0 mi NE 5.8 mph - N/A   Clear
11:54 AM 32.0 °F 26.4 °F 21.2 °F 64% 29.98 in 10.0 mi ENE 5.8 mph - N/A   Clear
12:54 PM 33.1 °F 27.7 °F 21.0 °F 61% 29.99 in 10.0 mi East 5.8 mph - N/A   Clear
1:54 PM 35.1 °F 28.6 °F 21.9 °F 59% 29.99 in 10.0 mi NE 8.1 mph - N/A   Clear
2:54 PM 33.1 °F 26.9 °F 21.9 °F 64% 29.98 in 10.0 mi NE 6.9 mph - N/A   Clear
3:54 PM 32.0 °F 24.2 °F 23.0 °F 69% 29.98 in 10.0 mi NE 9.2 mph - N/A   Clear
4:54 PM 30.9 °F 24.3 °F 25.0 °F 79% 30.00 in 9.0 mi NE 6.9 mph - N/A   Clear
5:54 PM 30.0 °F 24.1 °F 25.0 °F 82% 30.01 in 8.0 mi NE 5.8 mph - N/A   Clear
6:54 PM 28.0 °F 21.7 °F 24.1 °F 85% 30.00 in 7.0 mi ENE 5.8 mph - N/A   Clear
7:54 PM 27.0 °F 21.6 °F 24.1 °F 89% 29.99 in 5.0 mi ENE 4.6 mph - N/A   Clear
8:50 PM 28.4 °F 24.6 °F 26.6 °F 93% 29.96 in 5.0 mi East 3.5 mph - N/A   Mostly Cloudy
8:54 PM 28.9 °F 25.2 °F 26.1 °F 89% 29.98 in 5.0 mi East 3.5 mph - N/A   Mostly Cloudy
9:20 PM 28.4 °F 22.2 °F 26.6 °F 93% 29.95 in 4.0 mi ENE 5.8 mph - N/A   Scattered Clouds
9:54 PM 28.9 °F 21.1 °F 26.1 °F 89% 29.97 in 4.0 mi ENE 8.1 mph - N/A   Clear
10:54 PM 30.0 °F 24.1 °F 27.0 °F 88% 29.97 in 5.0 mi NE 5.8 mph - N/A   Clear
11:54 PM 28.9 °F 22.8 °F 26.1 °F 89% 29.94 in 5.0 mi ENE 5.8 mph - N/A   Clear